Warning: Javascript must be enabled to use all the features on this page!


Page Loading - Please Wait...

* We've detected you're using a mobile device. Find our Next Generation Station Page here.
Click to hideNews Bulletins

Peak Streamflow for the Nation

USGS 02401390 BIG CANOE CREEK AT ASHVILLE AL

St. Clair County, Alabama
Hydrologic Unit Code 03150106
Latitude  33°50'23", Longitude  86°15'46" NAD27
Drainage area 141.00  square miles
Contributing drainage area 141.00  square miles
Gage datum 529.56 feet above NGVD29
Output formats
Table
Graph
Tab-separated file
peakfq (watstore) format
Reselect output format
Water
Year
Date Gage
Height
(feet)
Stream-
flow
(cfs)
1966 1966-03-04 14.95 4,040
1967 1967-09-09 15.22 4,410
1968 1968-01-10 15.11 4,250
1969 1969-05-19 14.74 3,810
1970 1970-03-20 17.34 9,560
1971 1971-07-16 16.14 7,260
1972 1972-01-11 15.93 6,870
1973 1973-06-13 14.66 4,790
1974 1973-12-27 15.13 5,500
1975 1975-01-25 16.19 7,350
1976 1976-03-31 15.19 5,600
1977 1977-04-06 17.06 9,140
1978 1977-10-09 14.79 4,980
1979 1979-04-13 18.75 13,600
1980 1980-03-18 16.26 7,500
1981 1981-03-30 14.97 5,260
1982 1982-01-04 13.85 3,710
1983 1982-12-01 16.74 8,270
1984 1983-12-04 15.47 6,000
1985 1985-02-01 14.56 4,600
1986 1985-12-13 9.75 1,100
1987 1987-01-19 14.26 4,190
1988 1988-09-17 14.83 4,990
1989 1989-03-05 14.53 4,550
1990 1990-02-16 16.71 8,380
1991 1991-02-20 14.65 4,790
1992 1992-09-05 13.99 4,000
1993 1993-01-13 15.03 5,300
1994 1994-03-28 15.20 5,560
1995 1994-12-05 14.53 4,640
1996 1995-10-05 17.18 9,440
1997 1997-06-18 15.76 6,500
1998 1998-01-08 16.71 8,380
1999 1999-01-23 14.10 4,120
2000 2000-04-04 16.87 7,900
2001 2001-09-04 16.96 8,110
2002 2002-01-25 14.70 4,060
2003 2003-05-08 17.32 9,170
2004 2004-09-17 17.38 9,360
2005 2004-11-24 19.05 14,800
2006 2006-03-21 13.61 3,140
2007 2007-01-01 9.46 1,240
2008 2008-08-26 14.81 4,380
2009 2009-01-07 16.84 7,830
2010 2009-11-11 15.69 5,600
2011 2011-03-10 16.08 6,250
2012 2012-01-27 14.50 4,030
2013 2013-05-19 15.56 5,400
2014 2014-04-08 16.32 6,720
2015 2015-01-05 14.46 3,980
2016 2015-12-26 16.57 7,240
2017 2017-06-23 14.79 4,890
2018 2018-04-16 14.31 4,220
2019 2018-12-29 15.40 5,840